Location: Ay?beleni
(36.6500°N, 30.3000°E)
Time: 23:53:15
(UTC+00:00)

H-2A R/B - Pass Details

Date: 09 April 2020
Orbit: 734 x 836 km, 98.2° (Epoch: 06 June)

Event Time Altitude Azimuth Distance (km) Brightness Sun altitude
Exits shadow 18:13:12 - 188° (S) 3,211 5.0 -20.7°
Reaches altitude 10° 18:15:29 10° 196° (SSW) 2,360 4.4 -21.1°
Maximum altitude 18:20:16 36° 262° (W) 1,218 3.4 -21.9°
Drops below altitude 10° 18:24:57 10° 329° (NNW) 2,313 5.3 -22.7°
Sets 18:27:25 0° 338° (NNW) 3,228 6.0 -23.2°
